Regional Weather Roundup
Issued by NWS Bismarck, ND

Home | Current Version | Previous Version | Text Only | Print | Product List | Glossary On
Versions: 1 2 3 4 5 6 7 8 9 10 11 12 13 14 15 16 17 18 19 20 21 22 23 24 25 26 27 28 29 30 31 32 33 34 35 36 37 38 39 40 41 42 43 44 45 46 47 48 49 50
000
ASUS43 KBIS 191759
RWRBIS

NWR BROADCAST TEXT
NATIONAL WEATHER SERVICE BISMARCK ND
100 PM CDT FRI SEP 19 2014

NOTE: "FAIR" INDICATES FEW OR NO CLOUDS BELOW 12,000 FEET WITH NO
SIGNIFICANT WEATHER AND/OR OBSTRUCTIONS TO VISIBILITY.


CITY           SKY/WX    TMP DP  RH WIND       PRES   REMARKS
WILLISTON      SUNNY     78  49  35 W21G32    29.64R
MINOT          SUNNY     80  48  32 SW21G28   29.56F
MINOT AFB      NOT AVBL
BISMARCK       SUNNY     82  56  40 W7        29.65R
DICKINSON      SUNNY     77  48  35 W17G26    29.72R
GARRISON         N/A     79  51  37 W15G28    29.61S
HETTINGER ARPT MOSUNNY   78  48  34 W21       29.76S
JAMESTOWN      NOT AVBL
BEACH            N/A     73  48  40 W21G31    29.77S
CARRINGTON     FAIR      77  59  53 MISG      29.59S
CROSBY         FAIR      73  50  43 W22G28    29.63R
HARVEY         FAIR      81  54  39 W15G22    29.57S
HAZEN          FAIR      81  50  34 W20G26    29.64S
LINTON         FAIR      79  59  50 W12G17    29.66S
MANDAN         FAIR      79  54  41 NW12      29.66S
OAKES            N/A     68  66  94 SW16      29.64R
RUGBY          FAIR      75  59  57 W13G21    29.55R
TIOGA          FAIR      75  48  38 W22G32    29.65S
WATFORD CITY   FAIR      77  46  33 W23G33    29.64S
$$

CITY           SKY/WX    TMP DP  RH WIND       PRES   REMARKS
GRAND FORKS    CLOUDY    68  65  90 S14       29.53F
GRAND FORKS AF NOT AVBL
DEVILS LAKE    SUNNY     73  61  64 W16       29.54R
FARGO          LGT RAIN  69  63  81 S14       29.61R
CAVALIER       FAIR      73  63  68 SW3       29.49R
GRAFTON        FAIR      70  66  88 S12       29.50S
GWINNER        MOCLDY    70  64  83 SW15      29.63S
LANGDON        FAIR      75  59  57 SW7       29.52R
ROLLA          FAIR      75  55  50 W10       29.53F
$$

CITY           SKY/WX    TMP DP  RH WIND       PRES   REMARKS
ABERDEEN       CLOUDY    71  64  78 W10       29.66S
MOBRIDGE       MOSUNNY   78  61  55 NW10      29.66R
RAPID CITY     PTSUNNY   81  50  33 N12G21    29.83F
GLASGOW        MOSUNNY   73  49  42 NW16      29.75R
SIDNEY         SUNNY     79  48  34 W20G29    29.70R
WOLF POINT     MOSUNNY   76  51  41 W20G26    29.72R
GLENDIVE       MOSUNNY   73  48  40 W20G28    29.78R
MILES CITY     MOSUNNY   77  48  35 W20G26    29.82R
BAKER          MOSUNNY   76  47  35 NW21G30   29.81S
$$

CITY           SKY/WX    TMP DP  RH WIND       PRES   REMARKS
BILLINGS       MOSUNNY   76  44  32 W21       29.92R
GREAT FALLS    PTSUNNY   71  44  37 W20G28    29.91S
$$



USA.gov is the U.S. government's official web portal to all federal, state and local government web resources and services.